Content
SEND FEEDBACK

Daily
Averages
Monthly
Summary
Germany

WURZBURG, GERMANY


Home > Europe > Germany
Elevation: 850 feet     Latitude: 49 48N     Longitude: 009 54E

WEATHER
 
SELECT A DAY
Number of Records: 73,888;   Date Range: 2/20/97 - 9/15/14
 
SHARE

PRINT THIS DATA

[ ← Previous Day ]
WEATHER ALMANAC - MAY 17, 2013
[ Next Day → ]
[ °C ]   °F
Weather ElementAverageHighLow
Temperature58.3 °F66.2 °F (1:20 pm)51.8 °F (6:20 am)
Dewpoint53.1 °F55.4 °F (3:20 pm)50 °F (7:02 am)
Humidity83.7 %100 % (6:20 am)64 % (1:20 pm)
Barometer29.48 in29.56 in (5:40 pm)29.42 in (6:20 am)
Wind Speed6.5 mph16.1 mph (5:20 pm)
Weather ElementAverage
Visibility3.5 mi
Wind DirectionWSW (236.1 °)

Weather ElementTotal
Precipitation---
Heating Degree Days6 (Base 65)
Growing Degree Days9 (Base 50)
Averaged from 23 records on May 17, 2013
WEATHER CONDITIONS BREAKOUT
WIND DIRECTION BREAKOUT
WEATHER BY HOUR - MAY 17, 2013
[ °C ]   °F
Local TimeTemperatureDewpointHumidityBarometerVisibilityWind DirectionWind SpeedGust SpeedPrecipitationEventsConditions
6:20 AM51.8 °F51.8 °F100 %29.42 in5.0 miWNW (300°)2.3 mphFogFog
7:02 AM51.8 °F50.0 °F94 %29.44 in1.6 miNorth (360°)3.5 mphFogFog
7:17 AM51.8 °F50.0 °F94 %29.44 in0.1 miVariable2.3 mphFogFog
7:20 AM51.8 °F50.0 °F94 %29.44 in0.1 miNE (40°)3.5 mphFogFog
8:20 AM53.6 °F53.6 °F100 %29.44 in0.6 miWNW (300°)3.5 mphFogPatches of Fog
8:27 AM55.4 °F51.8 °F88 %29.44 in1.2 miNW (310°)3.5 mphFogFog
8:37 AM55.4 °F51.8 °F88 %29.44 in2.2 miNorth (360°)3.5 mphFogFog
8:54 AM55.4 °F51.8 °F88 %29.44 in2.5 miVariable2.3 mphMostly Cloudy
9:20 AM55.4 °F51.8 °F88 %29.47 in2.5 miVariable2.3 mphMostly Cloudy
10:15 AM59.0 °F51.8 °F77 %29.44 in3.1 miWest (280°)3.5 mphMostly Cloudy
10:20 AM59.0 °F53.6 °F82 %29.44 in3.1 miWest (280°)4.6 mphMostly Cloudy
11:20 AM60.8 °F53.6 °F77 %29.47 in6.2 miSW (230°)5.8 mphMostly Cloudy
12:20 PM64.4 °F53.6 °F68 %29.47 in6.2 miWSW (250°)5.8 mphScattered Clouds
1:20 PM66.2 °F53.6 °F64 %29.50 in6.2 miWest (280°)10.4 mphScattered Clouds
2:20 PM64.4 °F53.6 °F68 %29.50 in6.2 miWest (270°)10.4 mphMostly Cloudy
3:20 PM66.2 °F55.4 °F68 %29.50 in6.2 miWNW (300°)6.9 mphMostly Cloudy
4:20 PM64.4 °F55.4 °F73 %29.50 in6.2 miWest (260°)11.5 mphRainLight Rain
5:15 PM62.6 °F53.6 °F72 %29.50 in3.7 miWest (260°)15.0 mphRainRain
5:20 PM60.8 °F53.6 °F77 %29.53 in3.7 miWest (260°)16.1 mphRainRain
5:40 PM59.0 °F53.6 °F82 %29.56 in3.7 miSW (220°)5.8 mphRainRain
6:20 PM57.2 °F55.4 °F94 %29.53 in3.7 miWest (270°)12.7 mphRainRain
7:20 PM57.2 °F55.4 °F94 %29.56 in3.1 miWNW (300°)6.9 mphRainLight Rain
7:42 PM57.2 °F55.4 °F94 %29.56 in2.5 miWNW (300°)8.1 mphRainLight Rain
Hourly data recorded from ETSI, located miles away from Wurzburg, Germany







STORIES FROM OUR PARTNERS